Flag for U.S.A. Weather past 2 weeks in Wheaton, Illinois, U.S.A.

Now
33 °F

Clear.


Feels Like: 26 °F
Forecast: 35 / 56 °F
Wind: 8 mph from North

Location: Dupage Airport

Current Time: Apr 26, 2015 at 4:01:49 AM

Latest Report: Apr 26, 2015 at 2:52 AM


Visibility: 10 mi

Pressure: 29.91 "Hg

Humidity: 78%

Dew point: 27 °F

Location of WheatonLocation

Historic Weather in Wheaton — Graph

°F

Wheaton temperature yesterday

Maximum temperature yesterday: 47 °F (at 3:52 PM)
Minimum temperature yesterday: 39 °F (at 11:52 PM)
Average temperature yesterday: 44 °F

Past Weeks' High & Low Weather Summary

 TemperatureHumidityPressure
High77 °F (Apr 17, 3:52 PM)97% (Apr 17, 6:52 AM)30.28 "Hg (Apr 17, 6:52 AM)
Low28 °F (Apr 23, 4:52 AM)16% (Apr 14, 2:52 PM)29.23 "Hg (Apr 20, 6:52 AM)
Average51 °F56%29.94 "Hg
* Reported Apr 11 2:52 AM — Apr 26 2:52 AM, Wheaton, Weather by CustomWeather, © 2015

Note: Actual official high and low records may vary slightly from our data, if they occured in-between our weather recording intervals... More about our weather records

Advertising

Wheaton weather history for previous 24 hours

 ConditionsComfort  
Time TempWeatherWind HumidityBarometerVisibility
2:52 AM
Sun, Apr 26
33 °FClear.8 mph78%29.91 "Hg10 mi
1:52 AM36 °FClear.7 mph73%29.90 "Hg10 mi
12:52 AM37 °FClear.8 mph70%29.88 "Hg10 mi
11:52 PM
Sat, Apr 25
39 °FOvercast.8 mph67%29.86 "Hg10 mi
10:52 PM41 °FOvercast.10 mph62%29.85 "Hg10 mi
9:52 PM41 °FMostly cloudy.13 mph62%29.85 "Hg10 mi
8:52 PM42 °FOvercast.13 mph65%29.84 "Hg10 mi
7:52 PM43 °FMostly cloudy.13 mph71%29.83 "Hg10 mi
6:52 PM44 °FCloudy.13 mph79%29.81 "Hg10 mi
5:52 PM46 °FMore clouds than sun.15 mph77%29.79 "Hg9 mi
4:52 PM47 °FOvercast.18 mph74%29.75 "Hg10 mi
3:52 PM47 °FOvercast.21 mph77%29.71 "Hg9 mi
2:52 PM46 °FLight rain. Fog.18 mph86%29.72 "Hg6 mi
2:02 PM45 °FLight rain. Fog.15 mph90%29.74 "Hg4 mi
1:52 PM45 °FLight rain. Fog.15 mph90%29.75 "Hg2 mi
12:52 PM43 °FRain. Fog.12 mph89%29.80 "Hg2 mi
12:04 PM44 °FRain. Fog.9 mph89%29.78 "Hg3 mi
11:52 AM44 °FRain. Fog.9 mph89%29.78 "Hg2 mi
10:52 AM44 °FRain. Fog.13 mph89%29.76 "Hg2 mi
9:52 AM44 °FLight rain. Fog.14 mph85%29.76 "Hg5 mi
8:52 AM43 °FLight rain. Fog.13 mph89%29.77 "Hg5 mi
7:52 AM44 °FOvercast.16 mph79%29.78 "Hg9 mi
6:52 AM44 °FLight rain. Overcast.14 mph79%29.78 "Hg9 mi
5:52 AM44 °FOvercast.16 mph79%29.78 "Hg10 mi
4:52 AM44 °FOvercast.15 mph79%29.77 "Hg10 mi
Weather by CustomWeather, © 2015

See weather overviewHow to use our weather pages